Miscellaneous Local Product
Issued by NWS Hastings, NE

Home | Current Version | Previous Version | Graphics & Text | Print | Product List | Glossary On
Versions: 1 2 3 4 5 6 7 8 9 10 11 12 13 14 15 16 17 18 19 20 21 22 23 24 25 26 27 28 29 30 31 32 33 34 35 36 37 38 39 40 41 42 43 44 45 46 47 48 49 50
628
AXUS43 KGID 050002
MISGRI

GID CWA HOURLY WEATHER ROUNDUP
NATIONAL WEATHER SERVICE HASTINGS NE
600 PM CST SUN DEC 04 2016

NOTE: "FAIR" INDICATES FEW OR NO CLOUDS BELOW 12,000 FEET WITH NO
SIGNIFICANT WEATHER AND/OR OBSTRUCTIONS TO VISIBILITY.

...SOUTH CENTRAL NEBRASKA...

CITY           SKY/WX    TMP DP  RH WIND       PRES   REMARKS
GRAND ISLAND   CLEAR     38  32  79 S8        29.88S WCI  32
HASTINGS       CLEAR     40  30  67 S8        29.89S WCI  34
KEARNEY        CLEAR     36  21  55 S8        29.87R WCI  29
ORD            CLEAR     32  19  58 SW8       29.82S WCI  25
YORK           CLEAR     39  36  87 S7        29.89S WCI  34
AURORA         CLEAR     41  33  74 S9        29.88S
LEXINGTON      CLEAR     37  18  47 S5        29.85S WCI  33
HOLDREGE       CLEAR     40  19  43 SW7       29.87S WCI  35
HEBRON         CLEAR     36  32  87 SW9       29.93F WCI  29

...NEBRASKA PANHANDLE...

CITY           SKY/WX    TMP DP  RH WIND       PRES   REMARKS
CHADRON        PTCLDY    37  17  44 S10       29.70F WCI  30
ALLIANCE       CLEAR     35  16  45 SW10      29.73F WCI  27
SCOTTSBLUFF    CLOUDY    41  17  38 SW6       29.73F
SIDNEY         CLEAR     34  10  37 S12       29.76F WCI  25

...WESTERN AND NORTH CENTRAL NEBRASKA...

CITY           SKY/WX    TMP DP  RH WIND       PRES   REMARKS
VALENTINE      PTCLDY    37  14  38 S6        29.75F WCI  32
AINSWORTH      CLEAR     37  18  47 SW6       29.78F WCI  32
ONEILL         CLEAR     41  24  50 SE3       29.81S
BROKEN BOW     CLEAR     34  16  47 CALM      29.82S
IMPERIAL       CLEAR     39   9  29 S12       29.82F WCI  32
NORTH PLATTE   CLEAR     35  18  49 S5        29.82F WCI  31
MCCOOK         CLEAR     39  14  36 S8        29.86F WCI  33

...EASTERN NEBRASKA...

CITY           SKY/WX    TMP DP  RH WIND       PRES   REMARKS
NORFOLK        CLEAR     35  24  64 SW7       29.83F WCI  29
SO SIOUX CITY  CLEAR     38  30  73 S3        29.85S
TEKAMAH        CLEAR     34  31  88 S12       29.89S WCI  25
COLUMBUS       CLEAR     39  30  70 S7        29.87S WCI  34
ALBION         CLEAR     38  25  59 SE3       29.84S
OMAHA EPPLEY   CLEAR     33  28  81 S7        29.92R WCI  27
OFFUTT AFB     CLEAR     32  32 100 S3        29.92R
MILLARD        CLEAR     33  32  94 CALM      29.92S
LINCOLN        CLEAR     33  31  92 S6        29.93R WCI  28
NEBRASKA CITY  CLEAR     35  32  89 SW8       29.94R WCI  28
BEATRICE       CLEAR     36  32  87 SW5       29.95R WCI  32
FALLS CITY     CLEAR     38  35  89 S8        29.96S WCI  32

...NORTHERN KANSAS...

CITY           SKY/WX    TMP DP  RH WIND       PRES   REMARKS
GOODLAND       CLEAR     42  11  28 S10       29.87F
HILL CITY      CLEAR     42  19  39 S5        29.93S
NORTON         CLEAR     37  14  38 S6        29.89S WCI  33
PHILLIPSBURG   CLEAR     41  21  45 S5        29.92S
SMITH CENTER   CLEAR     34  30  86 SE9       29.93S WCI  26
BELOIT         CLEAR     39  30  70 S6        29.94F WCI  35
HAYS           CLEAR     40  25  55 S8        29.95F WCI  34
RUSSELL        CLEAR     39  28  64 SW12      29.94F WCI  32
CONCORDIA      CLEAR     36  31  82 S9        29.95S WCI  29
SALINA         CLEAR     40  33  76 S5        29.98S
TOPEKA         CLEAR     36  33  89 S3        30.01S



USA.gov is the U.S. government's official web portal to all federal, state and local government web resources and services.